Weather in Cayenne

French Guiana     4°55′02″N   52°19′42″W
temp.,
°C
wind,
m/s
gust,
m/s
humid.,
%
clouds,
%
prec.,
mm/h
press.,
hPa
HPBL,
m
13 april, tue
tue1300:00+27ene67837 1.7 1013635
03:00+26ene678227 3.8 1011664
06:00+27ene787930 3.3 1012781
09:00+27ene688222 7.4 1014607
12:00+28ene687895 1.1 1014697
15:00+27ene677591 1.1 1011821
18:00+27ene6777100 0.0 1011894
21:00+27ene787665 0.1 1013922
14 april, wed
wed1400:00+27ene7877100 0.2 1013834
03:00+27ene7879100 0.4 1011606
06:00+27ene7776100 0.3 1011607
09:00+27ene787963 0.7 1013562
12:00+28ene68806 0.9 1013689
15:00+27ene68785 1.2 1010610
18:00+27ene788197 0.3 1009653
21:00+28ene81082100 0.9 1012762
15 april, thu
thu1500:00+28ene6979100 0.9 1012894
03:00+27e7979100 1.6 1010965
06:00+27ene8979100 2.1 1011859
09:00+27ene7979100 2.8 1012846
12:00+28ene797823 0.4 1013935
15:00+27ene8978100 0.7 1010970
18:00+27ene8978100 0.2 10101008
21:00+28ne91078100 0.4 1012917
16 april, fri
fri1600:00+27ene91079100 0.3 1013903
03:00+27ene9107694 0.5 1010928
06:00+27ne91176100 0.3 1011994
09:00+27ne9117645 0.6 1013970
12:00+27ene810786 0.7 1012893
15:00+27ene8107612 0.9 1010908
18:00+27ene81078100 0.5 1010992
21:00+27ene81077100 0.6 10121008
17 april, sat
sat1700:00+27ene9107699 0.8 1013965
03:00+27ene8972100 0.9 10111038
06:00+27ene9107557 0.2 1012996
09:00+27ene89746 0.6 10131037
12:00+27ene897595 0.6 10131032
15:00+27ene897164 0.7 1011971
18:00+27ne7974100 0.1 1011882
21:00+27ene91077100 0.4 1012961